Location: Seattle
(47.6064°N, 122.3308°W)
Time: 10:39:06
(UTC-07:00)

ISS - Visible Passes

Search period start: 16 April 2026 00:00
Search period end: 26 April 2026 00:00
Orbit: 415 x 424 km, 51.6° (Epoch: 15 April)

Date Brightness Start Highest point End Pass type
(mag) Time Alt. Az. Time Alt. Az. Time Alt. Az.
16 Apr -0.9 05:43:59 10° SSE 05:45:07 11° SE 05:46:15 10° ESE visible
19 Apr -1.5 04:57:10 10° S 04:59:30 18° SE 05:01:52 10° E visible
20 Apr -1.1 04:11:27 11° SSE 04:12:18 11° SE 04:13:28 10° ESE visible
21 Apr -2.9 04:58:51 16° SSW 05:01:10 41° SE 05:04:23 10° ENE visible
22 Apr -2.4 04:13:13 25° SSE 04:13:51 27° SE 04:16:45 10° E visible
23 Apr -1.4 03:27:31 16° ESE 03:27:31 16° ESE 03:28:55 10° E visible
23 Apr -3.8 05:00:28 17° WSW 05:02:59 88° SSE 05:06:22 10° ENE visible
24 Apr -3.6 04:14:42 44° SSW 04:15:32 62° SSE 04:18:53 10° ENE visible
25 Apr -2.5 03:28:54 34° ESE 03:28:54 34° ESE 03:31:20 10° ENE visible
25 Apr -3.2 05:01:51 12° W 05:04:55 53° NNW 05:08:15 10° ENE visible
